Location: Newark
(50.8964°N, 1.4048°W)
Time: 11:15:52
(UTC+00:00)

N. Korean satellite - Pass Details

Date: 31 January 2020
Orbit: 456 x 505 km, 97.2° (Epoch: 24 February)

Event Time Altitude Azimuth Distance (km) Brightness Sun altitude
Rises 06:15:01 0° 11° (N) 2,557 10.2 -14.1°
Reaches altitude 10° 06:17:05 10° 9° (N) 1,680 9.3 -13.8°
Maximum altitude 06:20:40 69° 286° (WNW) 531 6.5 -13.2°
Drops below altitude 10° 06:24:18 10° 203° (SSW) 1,692 9.2 -12.7°
Sets 06:26:23 0° 201° (SSW) 2,577 10.2 -12.4°
